Regional Weather Roundup
Issued by NWS New Orleans/Baton Rouge, LA

Home | Current Version | Previous Version | Text Only | Print | Product List | Glossary On
Versions: 1 2 3 4 5 6 7 8 9 10 11 12 13 14 15 16 17 18 19 20 21 22 23 24 25 26 27 28 29 30 31 32 33 34 35 36 37 38 39 40 41 42 43 44 45 46 47 48 49 50
000
ASUS44 KLIX 021911
RWRLIX
NEW ORLEANS REGIONAL WEATHER ROUNDUP
NATIONAL WEATHER SERVICE NEW ORLEANS LA
200 PM CDT TUE JUN 02 2015

NOTE: "FAIR" INDICATES FEW OR NO CLOUDS BELOW 12,000 FEET WITH NO
      SIGNIFICANT WEATHER AND/OR OBSTRUCTIONS TO VISIBILITY.
      SKY/WX - SKY CONDITION AND SIGNIFICANT WEATHER.
      TMP - AIR TEMPERATURE.     DP    - DEWPOINT TEMPERATURE.
      RH  - RELATIVE HUMIDITY.   PRES  - PRESSURE.
      HI  - HEAT INDEX.          WCI   - WIND CHILL INDEX.

*  THESE STATIONS ARE NOT NWS OR FAA STATIONS AND ARE NOT UNDER
   NWS QUALITY CONTROL.

LAZ038-040-048-061>063-065>067-069-022000-
SOUTHEAST LOUISIANA

CITY           SKY/WX    TMP DP  RH WIND       PRES   REMARKS
N.O. AUDUBON     N/A    N/A N/A N/A MISG        N/A
N.O. INTL ARPT MOSUNNY   87  60  40 VRB5      29.97F
N.O. LAKEFRONT SUNNY     86  70  58 NW7       29.98F
SLIDELL        SUNNY     89  66  46 NE7       29.96F
BATON ROUGE    MOSUNNY   87  62  43 NW5       29.98F
BOOTHVILLE     MOSUNNY   86  71  60 NE6       29.98F
BELLE CHASSE   PTSUNNY   87  62  43 VRB3      29.96F
BOGALUSA*        N/A     86  63  46 NW5       29.99F
GALLIANO*      MOCLDY    86  64  47 MISG      29.97F
NEW ROADS*       N/A    N/A N/A N/A CALM      29.99F
GONZALES*        N/A     87  64  46 W5        29.96F
HAMMOND*       SUNNY     90  55  31 N7        29.99F
HOUMA*         MOSUNNY   86  64  48 N5        29.97F
PORT FOURCHON* CLEAR     84  68  58 W9        29.98F

$$

MSZ070-080>082-022000-
SOUTHERN MISSISSIPPI

CITY           SKY/WX    TMP DP  RH WIND       PRES   REMARKS
MCCOMB         MOSUNNY   83  65  54 N7        30.00F
GULFPORT       CLOUDY    83  72  69 S3        29.96F
BILOXI         PTSUNNY   84  71  65 S7        29.96F
PASCAGOULA     MOSUNNY   87  70  56 VRB5      29.96F
STENNIS ARPT*  PTSUNNY   82  64  54 MISG      29.96F

$$

COASTAL OBSERVATIONS
LAKE AND NEARSHORE STATIONS

STATION/POSITION TIME  TEMP    WIND        PRES    WAVE
                       AIR SEA DIR/SP/G            HT/PER
                 (UTC) (F)     (DEG/KT/KT) (MB)    (FT/S)
PASCAGOULA       1800   82     190/  7/  9 1014.8
WAVELAND YACHT   1800   81 83  160/  7/  9 1015.2
GRAND ISLE       1800   84 85  340/  5/  6 1015.4
SOUTHWEST PASS   1800   87 76  310/  6/  8 1015.8
NEW CANAL        1800   81 81   CALM  /  1 1014.7
SHELL BEACH      1800   81 85   30/  4/  5 1014.8

OFFSHORE STATIONS

STATION/POSITION TIME  TEMP    WIND        PRES    WAVE
                       AIR SEA DIR/SP/G            HT/PER
                 (UTC) (F)     (DEG/KT/KT) (MB)    (FT/S)
64 S DAUPHIN ISL 1850   81 85  350/  2/  4 1015.4    1

$$



USA.gov is the U.S. government's official web portal to all federal, state and local government web resources and services.